Regional Weather Roundup
Issued by NWS Northern Indiana

Home | Current Version | Previous Version | Graphics & Text | Print | Product List | Glossary On
Versions: 1 2 3 4 5 6 7 8 9 10 11 12 13 14 15 16 17 18 19 20 21 22 23 24 25 26 27 28 29 30 31 32 33 34 35 36 37 38 39 40 41 42 43 44 45 46 47 48 49 50
000
ASUS43 KIWX 250600
RWRIWX

KIWX WEATHER ROUNDUP
NATIONAL WEATHER SERVICE NORTHERN INDIANA
200 AM EDT SAT MAR 25 2017

NOTE: "FAIR" INDICATES FEW OR NO CLOUDS BELOW 12,000 FEET WITH NO
SIGNIFICANT WEATHER AND/OR OBSTRUCTIONS TO VISIBILITY.

* THESE STATIONS ARE NOT UNDER NWS QUALITY CONTROL. THEY ALSO MAY NOT
  REPORT WEATHER SUCH AS PRECIPITATION OR FOG.

INZ001>027-250700-
NORTHERN INDIANA

CITY           SKY/WX    TMP DP  RH WIND       PRES   REMARKS
KNOX*          CLOUDY    46  27  46 N10       30.03S
SOUTH BEND     CLOUDY    46  43  89 W9        30.04S
6HR MIN TEMP:  46; 6HR MAX TEMP:  70; 6HR PCP: TRACE;

GOSHEN         CLOUDY    57  50  77 S3        30.03F
6HR MIN TEMP:  57; 6HR MAX TEMP:  68;

MONTICELLO*    CLOUDY    62  52  68 S10       30.01F
6HR MIN TEMP:  62; 6HR MAX TEMP:  68;

ANGOLA*        MOCLDY    63  55  77 NW5       30.04R
FORT WAYNE     CLOUDY    56  50  80 S7        30.05S
6HR MIN TEMP:  56; 6HR MAX TEMP:  69;

PERU/GRISSOM   PTCLDY    60  54  81 S10       30.02S
6HR MIN TEMP:  59; 6HR MAX TEMP:  67;


$$
INZ028>050-250700-
CENTRAL INDIANA

CITY           SKY/WX    TMP DP  RH WIND       PRES   REMARKS
LAFAYETTE      CLOUDY    64  53  67 S7        30.01F
6HR MIN TEMP:  62; 6HR MAX TEMP:  69;

KOKOMO*        CLOUDY    62  53  72 S12       30.05S
6HR MIN TEMP:  61; 6HR MAX TEMP:  67;

MUNCIE*        CLOUDY    64  52  64 S10       30.06S
6HR MIN TEMP:  64; 6HR MAX TEMP:  71;

INDIANAPOLIS   CLOUDY    63  51  65 S9        30.05F
6HR MIN TEMP:  63; 6HR MAX TEMP:  69;


$$
MIZ043>046-050>051-056>058-064>065-071>073-077>080-250700-
SOUTHWEST LOWER MICHIGAN

CITY           SKY/WX    TMP DP  RH WIND       PRES   REMARKS
BATTLE CREEK   LGT RAIN  46  45  96 VRB7      30.05S
6HR MIN TEMP:  46; 6HR MAX TEMP:  70; 6HR PCP:  0.48;

BENTON HARBOR  CLOUDY    41  39  93 CALM      30.04S FOG
6HR MIN TEMP:  40; 6HR MAX TEMP:  51; 6HR PCP:  0.43;

COLDWATER*     CLOUDY    51  44  77 E5        30.04F
6HR MIN TEMP:  51; 6HR MAX TEMP:  69;

HILLSDALE*     CLOUDY    52  45  76 N7G24     30.05R
HOLLAND        CLOUDY    46  39  76 E12       30.07R
6HR MIN TEMP:  46; 6HR MAX TEMP:  57; 6HR PCP: TRACE;

GRAND RAPIDS   CLOUDY    42  35  76 NE14      30.10R
6HR MIN TEMP:  42; 6HR MAX TEMP:  62;

KALAMAZOO      CLOUDY    49  46  90 N9        30.05R FOG
6HR MIN TEMP:  49; 6HR MAX TEMP:  72; 6HR PCP:  0.64;

STURGIS*       CLOUDY    58  50  73 NE3       30.03F
6HR MIN TEMP:  58; 6HR MAX TEMP:  67;

THREE RIVERS*  MOCLDY    56  51  81 E5        30.04S
6HR MIN TEMP:  56; 6HR MAX TEMP:  70;


$$
OHZ001>008-015>018-024>025-250700-
NORTHWEST OHIO

CITY           SKY/WX    TMP DP  RH WIND       PRES   REMARKS
DEFIANCE       CLOUDY    58  51  78 S5        30.05R
6HR MIN TEMP:  58; 6HR MAX TEMP:  69;

FINDLAY        CLOUDY    61  51  70 S10       30.06S
6HR MIN TEMP:  60; 6HR MAX TEMP:  70;

TOLEDO EXPRESS MOCLDY    63  53  70 SW7       30.05R
6HR MIN TEMP:  63; 6HR MAX TEMP:  71;

TOLEDO METCALF CLOUDY    46  41  82 NE9       30.08R
6HR MIN TEMP:  46; 6HR MAX TEMP:  69;

LIMA           CLOUDY    62  52  69 S9        30.07S
6HR MIN TEMP:  62; 6HR MAX TEMP:  69;


$$
AND FOR LAKE MICHIGAN COASTAL AND OPEN LAKE BUOY OBSERVATIONS

STATION/POSITION TEMP    WIND        PRES    VSBY  WAVE
                 AIR SEA DIR/SP/G                  HT/PER
                 (F)     (DEG/KT/KT) (MB)    (MI)  (FT/S)
CALUMET HARBOR           340/ 12/ 16 1017.6R
MICHIGAN CITY     38     330/  3/  4   N/A
BURNS HARBOR      38      10/  4/  7 1018.6S
SAINT JOSEPH      39     290/  6/  9 1018.3

$$
&&



USA.gov is the U.S. government's official web portal to all federal, state and local government web resources and services.